OPS 4682 DEB, 38405

Orbit data source: Space-Track

OPS 4682 DEB, 38405 is space debris in LEO originally from a launch on Sat, 03 Apr 1965 UTC launched from the Air Force Western Test Range (AFWTR). Debris objects in space refer to the collection of defunct objects orbiting the Earth. Examples of debris include non-operational satellites, rocket bodies, and fragments generated from explosions, collisions, or faulty payload assembly.

Loading next visibility...
Identifier
38405, 1965-027DJ
Orbit
LEO
Country
Flag of USUS
Related business
Manufacturer
Unknown
Mission
Spacecraft
Bus & Motor
Unknown
Mass
Unknown
Launch date (UTC)
1965-04-03 (61 years ago)
Launch vehicle
Unknown
Launch site
Air Force Western Test Range (AFWTR)
Object type
Payload
Rocket body
Debris
Shape & HBR
Unknown shape, 0.1 m
Radar Cross Section
Small (<0.1 m²)

Expand to show TLE details & history
Last TLE update: 9 hours ago

TLE from 9 hours ago
0 OPS 4682 DEB
1 38405U 65027DJ  25349.82481591  .00000693  00000-0  22976-2 0  9997
2 38405  90.2582  17.7697 0016022 271.0664  88.8622 12.99402272641241
Epoch: 2025-12-15T19:47Z
TLE epoch observation values (Epoch: 2025-12-15T19:47:44.094Z)
Latitude
-0.00004°
Longitude
-3.88186°
Altitude
1,267.089 km
Speed
7.222 km/s
True Right ascension
01h 11m 04s
True Declination
0° 00' 00"
Sunlit
Object was in daylight at epoch
Visualization orbit readout
Latitude
Unknown
Longitude
Unknown
Altitude
Unknown
Speed
Unknown
Apparent Right ascension
Unknown
Apparent Declination
Unknown
Sunlit
N/A
Visualization observer readout
Local Sidereal Time
03:26:42
Azimuth
Unknown
Elevation
Unknown
Doppler factor
Unknown
Orbital elements
Apogee altitude
1,273.798 km
Perigee altitude
1,249.317 km
Semi-major axis
7,639.694 km
Eccentricity
0.0016
Inclination
90.2582°
RAAN
17.7697°
Arg. of periapsis
271.0664°
True anomaly
89.04577°
Mean anomaly
88.8622°
Eccentric anomaly
88.95398°
Mean motion
3.25034 °/min
Orbital period
110.76 mins
BSTAR
0.0022976
Loading maneuver chart data...
Computing Atmospheric mass density...
Loading historical data...
Loading historical data...
Loading historical data...
Loading historical data...
Loading historical data...
Loading historical data...
Loading historical data...

Documentation

Showing up to 5 results
|